Wind_Speed
15 16 16 17 17 17 17 17 17 17 17 17 17 16 16 16 15 15 14 13 12 11 10 10 9 9 8 8 8 8 8 8 9 9 9 9 9 9 9 8 8 7 7 7 7 7 6 6 6 6 6 5 5 5 5 5 4 4 3 4 5 5 6 8 8 9 10 12 11 9 9 9 10 11 10 10 12 12 14 17 15 15 15 13 12 12 12 13
16 16 17 17 17 18 18 18 18 18 18 18 18 17 17 16 15 14 13 12 12 11 11 10 10 9 9 9 9 9 9 9 9 10 10 10 10 10 9 8 8 8 8 7 7 7 7 7 6 6 5 5 5 4 4 3 3 4 4 4 5 7 9 10 9 9 10 10 9 9 10 10 10 12 10 9 13 13 14 18 17 16 16 14 12 12 13 13
17 17 17 18 18 19 19 19 19 19 19 19 18 18 17 16 15 14 13 12 12 12 11 11 10 9 9 9 9 9 9 9 10 10 10 10 10 10 9 9 8 8 7 7 7 7 7 6 5 5 4 4 4 3 3 3 3 4 4 3 7 9 9 8 8 9 9 9 9 10 10 11 11 11 11 11 12 14 16 18 19 17 16 15 14 14 14 14
19 19 19 19 20 20 20 20 20 20 20 19 18 18 17 16 15 14 14 13 13 12 12 11 10 9 9 9 9 9 9 9 10 10 10 11 10 10 10 9 9 8 7 7 7 7 7 5 4 4 3 3 3 3 4 4 4 4 4 5 8 8 7 8 8 8 9 10 10 10 11 12 12 11 12 13 11 12 17 18 19 19 17 17 16 15 15 15
21 21 22 22 22 22 22 22 21 21 20 19 18 18 17 16 16 15 15 14 14 13 12 11 10 10 10 9 9 9 8 8 10 11 10 10 10 10 10 9 9 8 8 8 7 6 6 5 4 3 3 3 3 4 5 5 5 5 6 8 8 8 9 9 9 10 10 10 11 11 12 13 14 13 13 14 12 13 18 17 17 18 17 18 18 17 17 16
20 21 22 23 23 23 23 22 22 21 20 19 19 18 18 17 17 17 16 15 15 14 13 12 11 11 10 10 9 10 8 8 10 9 9 9 9 8 9 9 9 8 8 7 7 6 6 5 5 4 4 5 5 6 5 5 5 5 7 9 8 9 10 10 10 11 11 11 12 12 14 14 14 16 14 14 15 16 18 17 17 17 16 18 19 19 18 17
19 19 20 21 22 23 23 23 22 21 20 20 20 19 19 19 18 18 17 17 16 15 14 13 12 12 11 11 10 11 10 11 13 11 11 11 10 10 10 9 9 8 8 8 8 8 7 6 6 7 6 6 7 7 7 7 7 7 9 9 9 10 11 12 12 12 12 12 13 13 14 15 16 17 15 15 16 17 17 17 17 17 17 18 18 19 19 18
20 19 20 20 21 22 23 23 23 22 21 21 21 20 20 20 19 19 18 17 17 16 15 15 14 13 13 12 12 12 12 13 14 14 13 12 11 11 11 10 10 9 9 9 9 9 9 8 8 8 8 8 8 8 8 7 8 10 11 11 10 12 12 12 12 12 13 13 14 15 16 16 17 17 17 17 17 18 18 18 17 17 17 18 18 19 20 20
21 21 20 20 21 22 23 23 23 23 23 22 22 21 21 20 20 20 19 19 18 18 17 16 16 15 15 14 14 14 14 14 14 15 13 13 12 12 12 11 10 10 10 10 10 10 10 10 10 9 9 10 10 10 9 7 8 11 12 12 12 12 13 13 13 14 15 15 16 16 17 18 17 18 20 20 19 18 18 18 18 18 17 18 19 19 20 21
23 22 21 21 21 22 23 24 24 24 24 23 23 22 21 21 21 21 20 20 20 19 19 18 18 17 17 17 16 17 16 14 15 15 14 14 13 13 13 12 12 12 11 11 11 11 11 11 11 10 11 12 11 11 11 10 11 12 12 13 13 14 15 15 15 16 16 16 17 17 19 20 19 20 22 21 19 18 18 18 18 18 18 18 19 20 20 21
25 24 24 23 23 23 24 25 25 25 25 25 24 23 23 22 22 22 22 21 21 21 20 20 20 19 19 19 19 19 17 15 16 16 15 15 14 14 13 13 13 13 13 13 13 13 13 13 12 11 12 12 12 12 13 13 13 14 14 15 15 16 17 17 16 16 16 17 18 18 21 23 21 22 22 20 19 18 18 18 19 19 20 20 20 21 22 22
27 26 26 25 25 25 25 25 26 26 26 26 26 25 24 24 23 23 23 23 22 22 22 22 22 22 21 21 21 20 18 17 18 18 17 17 16 15 15 14 14 14 15 14 14 14 14 14 13 13 13 12 13 14 13 14 14 15 16 16 17 17 17 18 17 17 18 19 19 18 21 23 22 21 20 19 19 19 19 20 20 21 22 22 23 23 24 24
30 29 28 27 27 26 26 26 26 27 28 28 27 27 26 26 25 25 24 24 24 23 23 23 23 23 23 24 23 21 20 20 19 19 19 18 17 17 16 16 16 16 16 16 16 16 15 15 14 15 15 15 17 17 16 16 16 17 19 18 18 16 17 19 18 17 18 18 17 16 16 17 17 18 17 17 18 19 20 21 22 22 23 24 25 25 25 25
32 31 30 29 29 28 28 27 28 28 29 29 29 29 29 28 27 26 25 25 25 25 25 25 25 25 25 26 24 22 22 21 20 20 20 19 19 18 18 18 17 18 18 18 17 17 17 16 16 17 17 18 19 19 18 20 19 19 20 19 18 14 14 17 18 16 16 15 15 15 15 14 15 17 18 19 19 20 21 21 22 23 23 24 24 24 24 24
34 33 32 31 30 30 29 29 29 29 29 30 31 31 31 30 29 28 27 27 26 26 26 26 26 26 28 28 26 24 23 22 21 20 20 20 20 19 19 19 19 19 19 19 18 19 18 18 19 19 19 19 20 20 19 20 21 21 18 14 13 13 11 15 19 18 16 17 16 15 14 14 17 20 21 21 20 20 21 21 22 22 23 24 24 25 25 25
35 35 34 33 32 31 31 30 30 30 30 30 31 32 32 31 31 30 29 28 28 27 27 27 27 27 29 29 26 25 24 23 22 22 21 21 21 20 20 20 20 20 20 20 20 20 20 21 21 21 21 21 21 20 17 16 17 19 19 15 13 13 11 13 19 20 18 17 17 17 15 14 18 22 22 22 21 22 22 21 22 22 23 24 24 25 25 25
37 37 36 34 33 33 32 32 31 31 31 31 31 32 33 33 32 32 31 30 29 29 29 29 28 29 31 30 26 24 22 21 22 22 22 22 22 22 22 22 22 21 22 22 22 23 22 22 22 21 23 22 22 20 15 12 13 14 17 17 15 15 13 13 16 19 18 17 17 20 22 21 22 26 26 25 25 25 25 24 24 24 24 24 24 25 25 25
39 38 37 36 35 35 34 34 33 32 32 32 32 33 33 34 33 34 33 32 32 31 31 31 29 30 31 29 27 25 22 22 23 22 22 22 23 23 23 23 23 22 23 23 24 24 23 23 22 21 24 25 24 22 18 16 13 12 12 13 13 14 16 14 14 19 20 19 20 21 24 25 25 29 29 27 28 28 28 28 27 26 26 26 26 25 25 25
41 40 39 38 37 36 36 35 34 33 33 33 33 33 34 34 35 35 35 34 34 32 31 31 30 30 30 28 26 24 23 23 24 23 23 22 22 22 23 23 23 23 24 24 24 24 23 25 24 23 27 28 26 24 22 19 15 16 16 14 14 13 15 15 15 22 24 23 25 25 26 25 24 28 31 29 29 29 29 29 29 28 28 26 25 24 23 22
42 41 40 39 39 38 37 37 36 35 34 34 34 34 34 35 35 35 36 36 35 33 33 33 32 31 31 30 28 26 25 24 23 23 22 22 23 23 24 24 24 25 26 26 26 26 25 26 28 27 26 25 25 24 20 19 19 21 20 19 20 19 20 18 19 26 27 24 27 25 25 27 24 26 32 33 30 30 30 29 29 28 27 26 24 23 22 20
42 41 42 40 40 40 39 38 38 37 36 35 36 35 35 35 34 35 36 36 36 35 35 36 35 35 36 34 32 30 28 27 26 24 22 22 22 22 23 23 23 25 25 25 26 26 25 29 30 26 25 22 23 25 21 21 23 22 21 20 19 21 22 21 24 30 28 27 29 26 24 29 28 28 33 35 32 31 31 29 29 28 26 26 24 23 21 19
41 41 41 40 40 40 40 39 39 38 37 37 37 36 35 35 34 35 35 35 37 37 36 37 37 37 37 36 34 32 31 30 29 27 26 25 24 24 25 24 24 25 26 26 27 27 28 33 31 27 27 26 25 24 22 23 23 23 24 21 19 20 20 20 24 28 26 25 25 25 26 30 29 29 34 36 32 32 31 29 28 27 26 25 23 22 20 19
41 42 40 40 40 39 40 40 40 40 39 38 37 35 34 34 34 35 35 36 39 39 38 39 38 38 38 37 35 32 33 32 31 30 29 28 28 28 28 28 27 28 30 30 29 29 30 31 29 25 26 26 24 24 24 24 25 26 26 22 21 21 19 17 19 22 24 24 23 25 30 34 33 33 37 38 35 34 32 30 29 28 25 23 22 20 19 19
42 41 41 41 39 39 40 39 41 41 39 38 36 34 33 34 34 33 33 36 41 44 42 40 40 40 40 38 36 34 34 32 32 33 31 30 30 29 31 30 28 31 34 32 30 31 31 29 29 26 23 22 21 23 23 23 25 27 27 26 24 22 20 18 19 25 28 27 28 27 29 34 33 31 34 33 30 32 32 32 30 27 25 22 20 20 19 19
44 42 41 41 40 40 39 41 43 40 38 38 34 32 32 33 32 31 32 33 40 46 45 43 42 42 43 40 37 36 36 35 36 36 32 31 32 31 32 32 30 33 35 32 32 33 31 31 33 31 29 27 25 26 26 24 24 22 23 27 26 23 21 19 19 26 26 22 22 19 15 18 18 16 21 21 19 23 27 28 28 25 23 21 20 19 20 19
45 44 43 41 41 41 40 44 43 38 39 36 32 31 32 32 30 29 29 28 38 49 48 45 42 41 43 41 39 37 36 40 41 37 34 34 34 33 33 35 35 34 32 31 31 33 33 34 35 33 32 30 29 30 30 28 25 20 21 24 24 24 24 23 22 22 18 12 13 12 9 12 13 11 15 17 17 19 21 22 23 23 22 21 20 20 19 18
46 45 44 43 43 42 43 44 40 39 40 35 31 32 32 31 27 28 25 18 29 46 46 44 43 41 41 39 38 35 35 41 39 36 38 37 35 36 36 38 38 35 33 31 28 31 35 34 34 33 31 31 32 31 31 30 26 23 24 25 25 24 23 22 20 19 17 15 16 16 15 16 19 20 22 23 23 21 18 19 20 21 21 21 20 20 19 18
50 47 45 45 45 45 45 44 41 41 38 33 32 32 30 29 25 24 17 8 17 28 28 33 39 41 41 37 35 35 39 41 36 34 37 36 37 39 38 39 38 36 36 34 31 31 34 31 30 30 28 28 30 30 29 27 25 26 27 27 25 23 22 19 17 17 16 15 16 17 17 14 16 21 23 25 26 23 20 19 19 20 20 20 20 20 20 19
51 49 47 45 44 45 47 47 45 41 36 33 32 30 29 26 23 20 11 9 23 26 21 23 29 32 34 35 35 36 40 41 38 35 34 33 36 40 41 39 37 36 37 37 35 32 32 32 30 27 27 28 28 28 25 22 24 27 27 26 24 22 21 17 14 14 12 13 16 15 16 14 13 16 19 23 24 22 22 20 18 19 20 22 22 22 22 21
50 50 49 46 45 46 48 49 47 40 35 34 31 30 28 24 23 18 9 16 27 25 22 22 24 27 26 29 33 35 37 38 37 37 35 34 34 36 40 39 36 37 38 38 37 37 36 35 32 30 29 30 29 27 24 22 24 25 25 23 18 17 16 13 11 10 8 13 17 17 20 17 10 9 14 23 24 19 21 22 21 23 24 26 26 24 23 23
54 52 51 50 49 47 48 50 46 39 35 35 32 29 27 26 26 16 13 31 31 21 22 23 24 28 25 25 27 29 34 36 36 36 37 37 35 35 37 37 36 34 36 39 39 39 41 39 37 38 36 32 30 28 25 25 24 24 24 17 10 8 8 9 10 9 8 10 12 16 22 21 14 8 8 16 19 15 19 22 23 25 26 26 25 24 24 23
58 57 55 54 51 48 49 48 43 37 36 36 32 31 31 27 24 24 30 35 23 19 25 24 24 25 22 23 24 24 29 33 34 36 37 37 37 38 37 37 37 29 26 35 38 37 39 41 40 39 39 36 32 29 28 27 26 25 22 15 10 7 5 7 7 8 10 9 7 12 17 18 21 21 15 14 14 12 15 18 20 23 24 24 22 21 21 21
55 55 56 58 57 54 53 49 41 36 39 39 33 35 36 23 23 45 51 33 14 14 20 20 21 23 21 24 26 25 27 30 32 33 36 37 37 38 37 35 36 31 20 20 28 29 27 31 36 38 39 38 36 34 33 30 29 29 26 21 15 9 5 7 7 7 9 9 8 12 13 12 18 23 22 22 23 20 18 17 18 20 20 19 19 18 19 19
48 49 51 55 58 59 59 54 45 40 41 40 37 39 36 26 37 56 56 44 30 19 14 13 18 23 25 28 29 28 29 31 33 33 35 37 38 39 40 36 36 38 28 15 17 22 16 16 24 29 30 30 33 35 35 32 30 30 29 26 21 16 10 7 5 5 3 3 7 11 8 7 9 12 15 17 22 25 24 20 19 20 19 18 19 19 19 19
47 48 47 49 53 57 60 56 49 44 43 43 44 45 42 41 53 55 49 52 47 32 22 15 17 24 29 31 32 31 33 33 34 35 35 37 39 39 40 39 37 38 35 23 17 20 21 20 23 25 24 21 21 24 29 30 27 26 27 25 23 23 18 9 6 5 3 2 5 11 10 11 12 11 9 8 11 17 21 22 22 22 22 21 20 20 20 19
47 47 44 47 51 54 58 57 49 45 46 47 48 51 53 58 59 50 46 50 51 47 38 23 19 26 31 35 36 33 35 35 33 34 36 37 39 40 39 39 37 37 37 32 25 20 17 18 24 27 26 24 21 20 27 31 24 20 27 30 29 30 24 12 8 9 7 7 8 12 15 18 18 18 16 14 13 14 16 20 24 24 24 23 22 20 20 19
46 47 47 49 53 53 55 55 49 44 46 51 54 56 61 66 61 51 44 43 48 53 47 34 29 32 33 35 38 37 35 35 33 32 33 34 34 38 41 38 36 36 36 34 33 28 20 14 18 22 23 24 25 23 27 32 29 22 25 31 32 29 25 17 7 6 7 7 8 13 17 18 17 16 19 22 22 21 20 20 23 25 25 24 24 22 21 20
46 47 50 52 52 53 52 51 48 47 47 52 57 60 64 66 65 57 45 40 43 46 47 43 36 34 34 34 35 38 35 34 35 33 30 31 29 32 36 36 35 35 33 31 32 32 28 20 18 21 22 21 23 25 26 31 34 30 27 28 26 19 17 17 11 6 7 6 7 10 16 19 21 18 20 23 22 19 19 21 24 25 25 25 24 24 23 22
48 48 52 54 52 52 52 49 48 49 50 52 56 60 65 65 63 58 49 41 37 37 42 46 38 29 31 32 32 37 37 35 37 35 31 31 31 32 32 30 29 30 29 32 34 34 32 24 16 18 22 21 23 28 30 32 35 37 33 28 25 19 13 16 17 10 7 7 7 7 8 13 21 24 24 25 21 17 17 20 23 24 24 24 22 23 23 21
44 48 53 53 51 51 52 52 50 49 51 53 56 59 62 61 58 58 54 44 34 32 36 41 38 31 30 31 31 36 38 37 39 39 36 35 34 34 34 30 29 29 26 27 33 36 35 29 21 17 19 22 27 32 35 36 37 39 39 33 30 29 19 13 18 19 11 6 5 7 7 8 11 15 16 15 13 14 15 16 18 20 21 22 20 20 20 19
39 46 53 51 49 50 51 54 55 53 53 55 58 60 60 58 56 58 59 51 43 40 38 36 37 36 36 35 33 34 38 38 40 40 40 41 39 36 36 34 32 33 29 27 32 36 36 35 30 23 23 28 31 34 35 36 37 39 42 41 39 39 31 15 12 20 22 15 9 7 8 8 7 8 10 10 11 11 11 13 17 18 19 19 19 18 19 19
42 47 51 50 50 52 53 58 61 58 57 60 62 62 61 59 56 55 56 55 53 51 49 45 43 40 40 41 39 38 38 38 41 42 41 43 44 41 39 37 33 32 31 29 33 36 36 37 32 25 28 31 32 34 33 34 37 37 39 41 37 37 38 25 10 12 21 25 22 12 9 13 13 10 10 11 10 11 12 15 17 19 19 19 19 20 20 20
44 49 50 49 50 52 54 60 61 56 58 61 61 61 61 60 58 55 52 53 55 56 54 52 52 48 44 43 42 41 41 39 40 44 44 43 44 43 42 40 37 35 33 32 35 35 35 35 29 21 22 27 29 33 33 31 33 37 41 42 37 37 40 35 23 12 12 20 21 11 9 13 15 15 13 12 12 12 14 16 18 20 21 20 20 20 20 22
38 43 49 51 50 50 53 59 60 57 59 61 59 59 59 59 60 59 55 54 55 55 55 55 54 52 49 47 44 44 44 41 40 44 45 44 44 44 43 42 41 39 39 39 38 35 35 36 29 17 11 15 18 21 26 32 36 39 43 44 43 42 37 36 36 24 17 22 21 13 12 11 9 13 15 15 16 16 16 19 21 20 21 21 21 21 22 23
35 35 42 50 51 50 50 53 60 62 62 61 60 60 59 58 60 61 59 57 54 53 55 55 54 52 51 50 49 48 48 45 42 41 42 43 44 44 43 43 43 44 44 41 38 34 34 36 34 26 15 12 12 13 24 39 45 44 44 44 46 46 41 39 37 28 23 26 26 25 22 15 12 13 13 14 16 17 18 21 21 19 20 21 21 22 23 24
38 36 37 42 46 48 47 46 52 60 63 62 60 60 60 60 59 58 56 55 54 53 53 54 53 51 50 50 51 51 51 48 45 43 43 43 43 43 44 44 45 46 44 40 36 33 32 33 38 39 34 28 24 20 24 33 40 44 47 48 48 47 47 44 37 32 28 22 26 38 35 25 24 21 16 16 17 17 19 22 19 19 19 21 21 22 24 25
41 39 38 38 41 49 52 48 46 53 59 62 63 62 63 63 58 50 48 53 54 53 51 51 51 51 52 53 53 51 51 49 47 49 48 46 44 43 44 45 45 46 45 41 38 35 34 37 42 45 44 42 39 33 27 25 27 34 41 47 49 47 47 47 44 45 38 23 28 42 36 33 39 32 23 21 18 18 20 20 20 21 21 22 23 23 25 25
44 42 39 38 37 43 49 50 50 52 53 57 62 61 59 63 62 52 48 51 52 51 49 48 52 55 55 55 53 50 49 46 47 51 51 49 47 42 41 42 44 45 43 40 39 38 38 41 43 42 43 46 44 42 39 32 26 27 29 36 43 45 47 52 53 53 45 35 41 44 32 34 41 35 33 30 22 22 23 22 23 23 22 24 24 24 26 26
46 45 41 39 38 38 39 43 51 56 53 54 60 60 56 58 63 63 57 50 47 50 50 48 52 54 53 54 52 49 48 46 45 50 51 50 48 44 41 41 41 43 42 40 42 41 39 42 43 40 41 44 44 46 47 41 34 30 28 30 35 40 45 49 51 52 48 47 53 46 32 33 30 24 29 31 26 26 25 24 26 25 24 25 25 26 26 26
46 47 44 41 41 40 36 39 49 57 56 54 55 59 59 58 59 62 61 56 53 55 56 55 57 55 50 51 50 49 51 51 49 49 48 48 48 47 45 43 42 42 41 41 42 42 41 42 43 40 39 41 45 47 47 46 41 35 32 32 34 35 38 42 45 47 47 50 54 46 40 42 36 26 27 30 30 30 28 29 31 29 27 28 28 28 27 27
44 45 44 41 40 40 36 36 43 51 54 54 53 55 57 59 60 58 57 59 61 60 58 60 62 57 52 51 50 50 52 51 49 48 46 45 45 44 44 45 44 44 43 42 43 42 42 43 43 39 34 38 44 43 44 47 42 38 44 47 41 34 33 37 41 42 44 48 49 46 48 52 48 41 39 37 36 34 32 33 34 33 33 33 32 33 32 33
43 43 42 40 39 38 35 32 35 41 48 52 54 55 55 56 58 56 51 53 58 61 60 60 58 54 53 55 56 55 53 51 51 51 49 48 48 47 45 44 44 45 45 44 44 45 45 45 46 40 30 30 38 38 39 37 26 31 53 60 50 43 39 37 38 39 39 41 42 44 49 50 47 44 41 37 34 33 33 33 33 34 36 36 36 38 38 37
Wind_Direction
196 194 192 191 189 188 187 187 187 187 187 188 190 192 195 198 200 200 200 199 199 200 204 210 215 221 228 233 237 239 240 244 248 249 249 249 249 249 247 249 252 255 257 259 259 256 258 259 261 265 265 265 264 265 260 254 241 225 204 202 223 206 212 227 212 204 211 230 238 225 225 232 246 259 260 271 277 276 282 281 280 280 278 276 275 274 273 272
201 199 197 195 194 193 193 193 194 195 196 197 199 202 203 203 203 201 201 202 204 209 215 220 222 225 231 237 241 243 244 245 247 247 248 249 249 250 250 250 251 255 257 257 256 255 259 261 262 265 264 264 262 257 251 243 226 211 192 201 227 216 222 227 218 217 218 231 236 223 229 234 241 257 266 275 278 283 288 284 282 281 282 284 281 276 273 273
208 207 205 204 202 201 200 201 202 203 204 206 207 207 205 204 203 204 207 209 212 216 222 224 226 229 234 240 244 248 248 247 248 247 247 248 249 250 250 250 252 255 253 250 254 258 259 260 260 258 255 252 245 238 230 220 212 205 178 211 242 232 232 231 226 229 230 240 239 230 236 240 244 253 261 265 272 282 280 277 282 284 286 287 282 276 272 270
215 214 213 212 211 210 209 209 210 212 212 211 209 207 206 205 207 210 213 215 218 221 225 229 232 235 238 242 247 249 252 257 255 249 249 250 249 251 250 251 252 247 244 248 254 255 255 254 249 244 239 237 231 225 223 215 216 205 187 219 239 235 238 236 234 239 243 251 252 248 248 250 253 252 259 265 267 272 270 271 278 283 286 284 280 275 273 269
219 219 220 219 219 219 219 218 217 216 214 212 210 209 209 210 212 215 218 220 222 226 228 232 236 239 243 246 249 253 257 267 261 252 252 250 248 249 250 249 245 239 239 244 245 244 245 243 244 242 233 238 236 236 231 222 227 224 219 229 236 237 244 246 246 250 251 254 257 257 255 256 260 259 261 266 260 255 266 274 274 276 280 279 279 276 273 271
222 223 224 224 224 224 224 222 220 217 215 213 213 214 215 216 217 219 221 224 226 229 232 236 239 242 247 249 251 254 250 251 255 255 253 250 249 251 250 246 239 238 237 233 233 236 238 239 248 251 248 253 249 245 244 236 233 241 241 239 242 244 249 254 255 256 256 256 256 255 257 260 263 264 262 265 265 260 265 270 268 270 271 272 275 274 273 270
225 226 226 225 225 225 224 222 220 218 217 217 218 219 219 220 221 222 225 228 230 233 237 240 244 247 250 253 254 254 250 250 256 259 257 257 258 255 250 245 242 237 230 226 231 235 238 241 250 256 258 261 256 250 250 248 242 247 253 248 249 254 255 259 260 261 261 259 259 258 258 261 262 264 264 266 269 267 265 264 264 266 267 268 269 268 269 267
228 228 228 227 226 225 223 222 220 220 221 221 222 222 223 223 224 227 229 231 235 237 241 244 248 252 254 256 257 257 256 257 261 261 260 261 258 255 249 245 242 234 227 228 233 236 241 245 250 256 257 254 256 254 251 258 256 252 258 259 259 262 262 262 262 262 263 265 267 266 264 262 262 264 265 268 270 267 264 263 264 264 265 265 263 262 264 264
231 230 230 229 228 226 224 223 223 223 224 224 225 225 226 227 228 231 233 235 239 241 245 248 251 255 257 259 260 262 260 259 265 265 263 261 257 252 248 245 241 235 234 235 236 240 245 248 249 252 255 253 254 255 252 256 259 255 259 264 265 265 265 265 265 265 266 269 269 269 269 264 263 266 269 270 268 264 262 263 265 266 266 263 261 261 260 263
235 234 233 232 231 229 228 227 226 225 227 228 228 228 229 230 232 235 237 239 241 244 247 250 253 256 258 260 260 261 260 260 265 266 264 261 258 253 248 245 243 241 240 239 241 245 247 250 251 252 255 256 255 257 256 253 256 261 264 267 268 269 268 269 269 269 268 268 267 268 269 268 266 266 269 270 268 263 260 261 264 267 267 265 263 262 261 263
236 236 235 234 233 233 232 231 230 229 229 230 231 231 231 233 235 237 239 241 244 246 249 251 254 256 258 259 259 259 260 261 264 264 263 260 257 254 249 245 244 244 244 244 247 248 249 251 251 253 256 260 259 261 263 259 260 265 269 271 271 270 271 270 269 270 270 269 269 270 269 269 267 264 266 269 268 263 261 262 265 267 267 266 264 264 265 267
236 236 236 236 235 235 234 234 233 232 232 232 233 234 234 234 236 238 240 242 245 247 250 252 254 256 258 259 259 261 262 261 262 263 262 260 257 253 249 246 244 244 246 247 248 249 250 250 250 251 253 260 266 268 269 267 268 271 272 275 276 278 275 272 270 269 270 270 271 271 271 271 268 265 267 267 264 262 263 264 266 267 267 266 266 266 268 270
237 236 236 236 236 236 236 235 235 234 233 234 234 235 236 236 237 239 240 243 245 248 250 253 255 257 260 261 260 261 263 262 261 261 261 258 255 251 248 246 244 244 246 247 249 249 250 250 250 252 255 261 266 269 272 272 274 277 277 277 280 282 277 275 275 273 270 270 270 265 268 275 272 270 270 264 263 263 262 264 264 265 266 266 267 268 270 273
238 237 236 236 237 237 237 237 236 236 235 235 236 236 237 238 239 240 241 243 246 248 251 253 256 258 260 261 262 262 263 263 262 261 260 257 254 250 247 245 245 245 246 248 249 249 250 252 255 258 259 262 266 270 274 276 277 277 281 283 284 279 269 270 274 273 270 266 266 265 268 273 268 269 272 269 267 265 264 264 263 263 264 265 267 269 271 274
239 238 237 236 236 237 237 238 238 238 237 237 237 238 238 239 240 241 242 244 246 249 251 254 256 259 262 263 263 263 263 263 263 261 258 256 253 250 247 246 245 246 247 249 250 252 254 256 258 261 263 264 268 271 275 279 280 279 279 279 280 274 263 268 271 269 269 267 265 266 268 270 266 268 271 271 270 269 268 266 264 264 264 265 267 269 270 273
239 239 239 238 237 238 238 238 239 239 239 239 239 240 240 241 242 242 244 245 247 249 252 255 257 260 263 264 264 264 264 264 263 260 257 254 252 250 248 246 246 247 249 251 253 255 257 258 261 263 265 266 268 270 274 276 276 279 277 269 265 265 257 265 273 271 268 266 265 263 262 265 270 271 270 271 273 273 270 267 265 264 263 264 265 267 269 271
239 239 239 239 238 239 239 239 239 239 239 240 241 242 242 243 243 244 244 245 247 249 252 255 258 261 263 264 265 265 265 265 262 258 255 252 250 250 249 249 250 251 252 254 255 256 258 260 261 263 265 264 264 266 263 255 258 266 272 272 264 259 256 259 269 272 267 262 264 267 267 265 266 268 270 273 274 273 270 267 265 263 262 262 263 266 269 271
240 240 239 239 239 239 240 240 240 241 241 241 241 242 243 243 244 244 244 245 246 249 251 254 257 260 262 265 266 266 264 263 261 258 254 250 249 249 250 251 251 253 254 255 255 256 258 259 259 261 261 260 259 256 249 251 265 265 263 271 270 263 266 267 263 266 267 268 270 271 271 270 268 269 271 272 271 269 269 268 266 265 264 263 264 266 268 269
242 242 240 239 239 239 240 241 241 241 242 243 242 242 243 244 244 245 245 245 246 247 251 255 256 257 261 265 265 266 263 260 259 256 254 252 250 248 248 249 250 252 253 254 255 255 256 258 257 255 257 261 262 261 261 266 268 261 258 262 267 264 267 271 262 263 270 275 275 273 271 271 269 271 273 271 268 268 268 268 267 266 265 265 265 264 264 265
242 242 242 241 240 240 241 241 241 241 242 244 244 243 243 244 245 246 246 247 248 250 253 256 257 257 259 261 263 263 262 261 259 256 253 250 249 249 248 249 250 250 251 254 255 255 256 257 256 256 260 263 267 270 270 264 255 256 260 261 264 264 266 268 265 268 275 277 277 278 274 269 265 267 272 272 271 270 268 267 266 265 265 264 263 262 262 259
243 243 243 242 241 241 241 242 241 241 241 243 244 243 243 244 245 248 249 250 251 251 253 255 256 256 257 259 260 261 261 260 258 255 252 249 247 247 247 247 248 249 250 251 253 257 256 254 256 262 262 257 262 269 265 256 256 258 260 262 264 264 266 267 267 273 280 280 280 279 272 270 270 268 269 272 272 271 269 267 266 265 265 264 261 259 256 250
244 244 243 242 242 242 242 242 242 241 241 242 242 243 244 245 246 249 252 254 253 251 252 254 255 256 257 259 259 259 259 258 256 254 252 251 249 249 250 248 250 252 253 252 255 259 256 256 260 263 262 260 261 265 261 258 258 258 259 260 260 262 266 268 272 279 282 282 282 280 274 273 275 272 270 271 271 268 267 266 266 265 265 264 259 254 249 245
244 244 244 243 242 242 242 242 242 241 240 241 242 243 244 245 246 249 252 255 256 254 252 253 255 256 257 258 258 258 256 255 255 254 251 251 251 252 254 253 253 255 255 254 255 255 254 259 264 260 261 264 264 260 257 258 259 258 259 256 256 262 265 267 274 280 280 281 282 282 280 277 275 272 270 271 269 267 267 265 263 263 263 261 254 247 245 248
244 244 244 243 243 242 242 242 242 240 240 241 241 242 243 245 246 248 252 257 260 257 254 254 255 255 256 257 257 256 255 254 253 251 248 249 251 251 253 255 255 255 256 256 257 256 255 259 263 261 260 259 258 258 256 257 259 261 260 258 257 259 264 269 272 274 280 285 284 284 285 281 279 274 271 272 269 266 263 261 259 258 258 254 246 243 246 252
242 244 244 244 243 241 241 242 242 241 241 240 239 240 242 243 246 249 254 260 264 261 257 255 255 256 256 255 254 253 253 253 250 249 248 247 249 249 251 253 250 251 254 257 258 258 254 253 257 258 258 256 258 261 260 259 259 261 264 265 264 261 261 265 270 276 284 288 283 283 283 281 284 273 265 273 275 265 259 255 254 252 248 243 240 244 250 250
240 241 242 243 242 241 240 241 241 241 241 240 238 239 240 242 245 249 254 263 267 263 260 257 255 255 254 251 250 250 252 252 249 249 248 246 247 248 249 251 249 248 252 255 255 253 250 249 254 256 257 258 259 260 261 260 257 256 259 263 266 266 264 263 267 274 278 276 272 266 257 274 288 269 255 270 281 272 258 249 246 240 236 236 240 246 248 244
239 239 239 241 242 242 241 241 241 240 240 238 235 236 238 240 243 247 252 265 269 264 262 258 253 252 252 251 249 244 243 249 249 246 245 244 245 245 245 248 249 248 247 247 246 250 252 252 254 257 258 259 257 257 260 261 258 253 254 257 263 268 270 270 269 264 262 267 268 260 254 267 274 265 260 266 273 273 260 243 235 230 230 235 240 243 244 241
238 238 238 238 239 241 242 242 241 238 239 236 232 234 235 237 239 242 243 251 260 260 260 254 251 251 250 249 247 239 239 246 247 244 244 242 242 243 242 244 247 250 248 243 242 251 258 257 256 258 258 257 257 257 260 262 259 253 254 258 262 268 270 271 266 257 259 267 265 255 248 257 266 264 268 272 269 265 255 240 232 229 232 238 241 244 245 243
235 236 237 237 236 237 238 239 238 236 234 232 229 230 231 233 234 228 222 242 248 250 251 246 245 246 245 243 241 238 240 242 243 244 245 241 239 240 241 241 241 244 247 246 244 249 256 257 257 257 254 253 255 256 257 257 254 253 255 259 263 267 268 267 260 252 255 256 251 243 233 242 268 263 261 270 270 261 249 238 235 237 241 246 247 249 249 247
237 236 236 237 236 235 235 236 235 233 230 228 226 225 225 224 218 204 199 239 244 246 244 239 239 240 238 235 234 235 237 239 240 241 240 239 238 238 240 241 238 239 245 248 247 247 250 254 256 255 253 252 254 256 254 249 246 249 255 258 261 265 262 258 248 240 253 256 249 240 227 231 265 267 245 258 270 266 250 243 244 249 252 253 252 251 251 251
241 239 238 237 236 236 236 236 235 231 229 227 224 221 220 215 205 189 220 237 239 245 236 227 230 234 233 234 235 234 234 234 236 236 235 236 236 235 235 235 234 235 242 247 248 250 250 251 252 253 254 253 254 255 251 247 243 245 249 246 242 248 246 244 232 220 242 257 250 237 224 221 236 244 230 255 269 262 246 245 246 250 253 254 254 253 253 255
240 240 238 237 236 236 236 236 235 230 228 225 222 219 212 204 199 207 226 235 240 245 234 224 223 225 227 232 233 233 231 232 233 233 234 234 234 236 235 234 231 228 236 244 245 250 253 252 251 253 254 253 252 250 246 244 239 238 233 213 204 215 213 223 215 210 233 244 234 219 213 218 237 247 244 247 256 246 239 245 247 248 249 249 250 250 248 249
237 237 237 236 235 235 235 235 232 228 226 222 217 213 205 194 213 224 224 224 230 239 233 225 220 218 219 223 224 225 226 229 231 230 232 233 233 236 237 237 235 231 235 243 240 242 253 258 254 252 252 252 249 243 241 241 235 231 220 199 196 209 222 231 220 225 237 233 221 208 209 230 246 256 254 245 246 247 244 247 245 245 244 242 241 239 237 237
237 236 236 236 235 234 235 235 231 228 225 218 210 204 196 201 229 230 225 223 227 233 234 216 205 207 211 218 223 222 220 225 229 227 229 230 229 232 234 234 234 233 232 234 233 231 237 257 256 253 252 252 251 247 245 245 243 239 228 212 210 215 224 239 228 231 236 213 203 190 196 229 229 249 257 243 242 244 243 242 237 235 233 232 232 226 226 228
237 235 235 235 234 233 233 233 230 226 221 214 206 198 195 212 228 229 225 224 224 226 228 215 199 203 209 214 219 219 217 222 227 226 228 229 230 232 234 233 232 231 229 226 229 231 236 250 256 256 256 253 254 248 238 236 241 241 228 215 217 221 228 252 268 263 305 337 209 191 210 229 220 231 231 207 222 230 234 234 227 229 232 230 229 224 224 229
235 232 230 231 232 233 231 230 228 223 217 209 200 196 206 220 227 227 227 225 224 224 223 215 204 206 209 213 216 215 216 220 224 225 228 231 233 235 236 236 235 234 233 230 229 230 234 248 254 254 256 254 251 243 230 226 228 224 215 213 218 220 222 239 270 265 272 290 245 210 225 237 237 243 230 213 229 232 229 227 222 226 231 228 227 227 232 239
233 228 226 227 230 231 229 229 228 221 213 205 199 204 218 226 227 228 229 226 225 227 225 220 218 215 212 213 216 215 214 218 222 224 227 230 235 237 236 238 237 237 239 238 237 240 240 248 256 254 253 251 248 240 229 224 222 214 212 218 223 224 225 229 255 263 242 264 250 216 224 233 229 238 236 231 240 242 236 230 223 225 227 226 227 229 236 243
233 229 228 228 228 229 227 227 228 222 213 204 203 214 224 227 227 227 227 225 226 227 226 225 226 223 218 215 217 217 213 216 220 220 223 229 235 240 238 238 238 237 240 240 238 242 244 247 255 251 249 249 245 236 225 222 222 219 220 221 219 220 223 218 223 251 231 242 262 226 223 229 222 225 240 242 245 245 236 228 226 226 225 226 227 230 236 241
236 230 229 228 226 226 224 223 223 220 214 206 206 217 225 226 226 223 221 224 227 225 225 226 226 224 222 218 219 219 212 215 223 221 223 230 237 242 240 237 239 240 240 239 239 241 241 242 248 248 246 243 234 224 218 218 219 219 223 224 218 216 215 208 213 228 236 240 260 239 217 231 232 232 246 255 254 244 230 225 226 225 225 227 229 232 237 239
234 230 231 230 225 224 223 221 219 217 216 211 210 220 227 226 227 225 222 221 222 223 225 227 225 224 226 222 221 223 218 219 228 229 230 235 239 244 243 239 241 246 242 237 239 240 236 236 242 242 238 230 224 224 224 223 221 218 218 218 218 216 212 216 225 225 232 255 264 253 251 249 230 221 235 248 235 222 222 223 222 220 221 225 227 230 232 233
230 230 235 234 226 224 224 221 220 220 220 217 214 220 227 228 230 231 228 224 224 227 229 229 226 227 232 229 224 226 225 225 231 232 233 237 239 243 247 246 246 248 242 232 233 235 231 233 235 233 231 226 227 233 232 227 226 226 223 220 220 218 211 212 234 222 222 238 246 257 282 272 225 192 199 197 192 210 218 205 205 209 213 216 219 222 227 232
230 229 236 237 229 227 223 219 222 222 219 219 219 220 224 228 230 233 233 230 229 231 233 233 233 231 234 236 233 231 231 229 230 231 234 240 243 246 250 251 248 246 244 240 242 241 234 231 228 228 235 236 236 237 232 226 227 228 227 223 220 220 214 209 219 215 215 229 239 253 281 268 250 226 196 190 207 231 220 199 196 199 203 208 214 221 230 240
233 229 233 236 235 233 224 217 219 219 219 224 225 223 224 227 229 231 233 232 231 231 232 233 235 233 233 237 237 236 237 235 235 238 241 243 244 246 249 249 248 246 246 244 244 241 230 224 219 222 239 242 241 242 238 233 229 225 227 225 219 222 221 218 224 228 217 223 227 237 258 255 248 233 219 226 235 224 207 204 201 199 206 215 224 235 248 258
237 235 231 232 234 235 227 218 216 216 220 224 225 223 225 227 229 230 232 233 231 231 230 231 234 235 235 237 238 240 240 240 240 242 242 241 242 244 245 245 245 246 245 243 242 238 227 220 213 211 236 241 240 244 239 234 231 229 231 230 225 225 222 220 226 232 244 237 222 221 245 249 244 236 237 244 233 212 203 203 201 205 216 225 236 250 260 259
238 243 237 232 232 232 230 225 221 220 221 221 221 223 224 226 230 231 232 233 234 233 234 235 236 237 239 240 241 242 242 242 242 241 239 237 239 241 241 242 244 245 244 241 240 237 230 223 214 208 211 218 218 225 231 232 230 230 231 230 229 227 221 221 225 227 242 245 228 227 239 248 255 250 242 232 218 212 209 203 206 220 228 236 248 255 252 247
237 243 235 225 221 221 226 229 226 223 222 220 220 224 224 225 230 232 232 232 234 234 236 238 240 239 239 239 239 239 239 238 238 239 240 239 240 240 240 240 243 244 242 237 235 233 230 228 225 222 222 226 229 233 239 238 233 231 232 231 230 229 225 224 225 225 232 238 235 237 239 246 256 255 247 236 221 212 208 206 224 249 252 253 257 252 245 243
235 238 233 219 208 207 214 220 223 225 227 223 222 225 225 225 227 229 230 231 232 233 233 235 237 237 236 235 235 235 236 235 233 236 239 240 241 242 241 239 240 241 239 235 231 229 227 230 233 231 231 235 239 244 249 250 245 241 238 235 232 231 227 223 223 228 228 225 242 246 241 244 250 250 249 243 225 220 228 234 254 269 265 257 252 247 245 245
235 236 237 230 217 210 213 218 220 225 229 227 226 227 227 225 226 225 228 231 231 230 231 231 233 235 235 236 234 232 232 231 231 235 237 237 237 238 237 236 236 236 236 233 230 227 226 232 235 234 236 240 240 244 248 249 251 249 243 241 239 235 231 226 227 232 228 225 242 249 246 249 251 249 250 250 241 245 259 268 273 274 263 251 245 245 247 247
236 237 237 235 231 226 223 224 221 221 227 228 227 227 226 226 227 227 228 229 228 229 228 228 231 233 233 233 232 230 228 227 228 232 234 234 234 233 232 232 232 232 232 231 231 228 227 233 238 236 240 243 241 242 245 245 247 247 241 241 241 238 236 234 235 236 232 233 243 247 248 253 251 243 247 250 250 254 264 273 274 271 259 247 244 248 248 246
236 239 239 237 236 234 231 228 221 219 223 226 226 227 227 227 230 230 229 228 230 232 230 230 234 233 230 230 229 228 231 233 234 234 234 233 232 232 232 232 231 231 230 230 232 231 229 234 240 238 239 243 242 242 242 242 242 243 241 239 237 234 233 233 236 237 234 237 244 244 246 251 249 243 244 250 255 260 266 269 269 267 261 254 253 255 252 251
236 240 242 242 241 238 234 231 226 223 223 223 227 230 230 231 234 234 231 230 232 234 233 236 238 236 233 233 232 231 233 236 237 238 238 239 239 240 241 242 241 239 236 234 235 234 231 233 237 236 235 240 241 240 241 242 243 244 244 241 233 226 226 228 232 235 234 238 242 242 244 248 249 249 252 255 260 264 266 268 269 270 269 266 264 263 263 266
234 238 242 242 241 238 236 234 233 232 229 227 229 231 232 234 236 234 230 230 232 233 234 238 240 237 235 237 238 239 239 239 239 241 243 246 249 250 250 250 249 247 244 242 239 236 234 234 234 232 230 234 239 239 240 241 242 245 246 244 238 231 231 232 233 235 235 236 239 241 245 248 250 253 257 260 263 265 266 269 271 273 272 271 270 270 271 272
Height
3156 3157 3158 3158 3159 3160 3161 3162 3163 3164 3165 3166 3166 3167 3168 3168 3169 3169 3169 3169 3170 3170 3171 3171 3171 3172 3172 3172 3172 3173 3173 3173 3174 3174 3174 3174 3174 3174 3174 3174 3174 3174 3174 3174 3174 3174 3174 3174 3175 3175 3175 3175 3175 3175 3176 3176 3176 3176 3177 3178 3179 3179 3178 3178 3178 3178 3178 3178 3178 3178 3179 3179 3179 3178 3178 3178 3178 3178 3178 3176 3177 3177 3177 3178 3178 3178 3178 3177
3156 3157 3158 3158 3159 3160 3161 3162 3163 3164 3165 3165 3166 3167 3167 3168 3168 3168 3169 3169 3170 3170 3170 3171 3171 3171 3172 3172 3172 3172 3173 3173 3173 3173 3174 3174 3174 3174 3174 3174 3174 3174 3174 3174 3174 3174 3174 3174 3174 3174 3175 3175 3175 3175 3175 3175 3176 3176 3177 3178 3178 3177 3177 3177 3177 3177 3177 3177 3177 3178 3178 3178 3178 3177 3177 3178 3177 3177 3177 3174 3175 3175 3176 3176 3177 3177 3176 3176
3156 3157 3158 3158 3159 3160 3161 3161 3162 3163 3164 3164 3165 3166 3166 3167 3167 3168 3168 3169 3169 3170 3170 3170 3171 3171 3171 3172 3172 3172 3172 3173 3173 3173 3173 3173 3173 3173 3173 3173 3173 3173 3173 3173 3173 3173 3173 3174 3174 3174 3174 3175 3175 3175 3175 3175 3175 3175 3176 3177 3176 3176 3176 3176 3176 3176 3176 3176 3176 3176 3177 3177 3177 3177 3177 3177 3177 3176 3176 3174 3173 3173 3174 3175 3175 3175 3175 3175
3155 3156 3157 3158 3159 3159 3160 3161 3161 3162 3163 3164 3164 3165 3165 3166 3167 3167 3168 3168 3169 3169 3170 3170 3170 3171 3171 3171 3171 3172 3172 3172 3172 3172 3172 3172 3173 3173 3173 3173 3173 3173 3173 3173 3173 3173 3173 3173 3174 3174 3174 3174 3174 3175 3175 3175 3175 3175 3176 3176 3175 3175 3175 3175 3175 3175 3175 3175 3175 3175 3176 3176 3176 3176 3176 3176 3177 3176 3174 3173 3173 3172 3173 3173 3173 3174 3174 3174
3154 3155 3156 3157 3158 3159 3159 3160 3161 3161 3162 3163 3163 3164 3164 3165 3166 3166 3167 3168 3168 3169 3169 3169 3170 3170 3170 3170 3171 3171 3171 3172 3171 3171 3172 3172 3172 3172 3172 3172 3172 3172 3172 3172 3172 3172 3173 3173 3173 3174 3174 3174 3174 3174 3174 3174 3174 3175 3175 3175 3174 3175 3174 3174 3174 3174 3174 3174 3174 3174 3174 3174 3174 3175 3175 3175 3175 3174 3172 3173 3172 3172 3172 3172 3172 3172 3172 3172
3153 3154 3155 3156 3157 3157 3158 3159 3159 3160 3161 3161 3162 3163 3164 3164 3165 3166 3166 3167 3167 3168 3168 3168 3169 3169 3169 3170 3170 3170 3171 3171 3170 3170 3171 3171 3171 3171 3171 3171 3171 3171 3171 3172 3172 3172 3172 3172 3173 3173 3173 3174 3174 3174 3174 3174 3174 3174 3174 3174 3174 3174 3173 3173 3173 3173 3173 3173 3173 3173 3173 3173 3173 3173 3173 3173 3173 3172 3172 3171 3171 3171 3171 3171 3171 3170 3170 3171
3151 3152 3153 3154 3155 3156 3157 3157 3158 3159 3160 3160 3161 3162 3163 3164 3164 3165 3165 3166 3166 3166 3167 3167 3168 3168 3168 3169 3169 3169 3170 3169 3169 3170 3170 3170 3170 3170 3170 3170 3170 3171 3171 3171 3171 3171 3172 3172 3172 3172 3173 3173 3173 3173 3173 3173 3173 3173 3173 3173 3173 3173 3173 3172 3172 3172 3172 3172 3172 3172 3172 3172 3171 3171 3171 3171 3171 3171 3170 3170 3170 3170 3170 3170 3169 3169 3169 3169
3150 3151 3151 3152 3153 3154 3155 3156 3157 3158 3158 3159 3160 3161 3162 3162 3163 3164 3164 3165 3165 3165 3166 3166 3166 3167 3167 3168 3168 3168 3168 3168 3168 3168 3169 3169 3169 3169 3169 3169 3169 3170 3170 3170 3170 3171 3171 3171 3172 3172 3172 3172 3172 3172 3172 3172 3172 3172 3172 3172 3172 3172 3172 3171 3171 3171 3171 3171 3171 3170 3170 3170 3170 3170 3169 3169 3169 3169 3169 3169 3169 3169 3168 3168 3168 3168 3168 3168
3148 3148 3149 3150 3151 3152 3153 3154 3155 3156 3157 3158 3159 3159 3160 3161 3162 3162 3163 3163 3163 3164 3164 3165 3165 3165 3166 3166 3167 3167 3167 3167 3167 3167 3167 3167 3168 3168 3168 3168 3168 3169 3169 3169 3170 3170 3170 3170 3171 3171 3171 3171 3171 3171 3171 3172 3171 3171 3171 3171 3171 3171 3170 3170 3170 3170 3170 3170 3169 3169 3168 3168 3169 3168 3167 3167 3168 3167 3167 3167 3167 3167 3167 3167 3167 3167 3167 3167
3145 3146 3147 3148 3149 3150 3151 3153 3154 3155 3155 3156 3157 3158 3159 3159 3160 3161 3161 3162 3162 3162 3163 3163 3164 3164 3164 3165 3165 3165 3165 3166 3165 3165 3166 3166 3166 3166 3167 3167 3167 3168 3168 3168 3169 3169 3169 3169 3170 3170 3170 3170 3170 3170 3170 3171 3170 3170 3170 3170 3170 3169 3169 3169 3169 3169 3169 3168 3168 3168 3167 3166 3167 3167 3165 3165 3166 3166 3166 3166 3166 3166 3165 3165 3165 3165 3165 3165
3142 3144 3145 3146 3147 3148 3149 3150 3152 3153 3154 3154 3155 3156 3157 3158 3158 3159 3159 3160 3160 3161 3161 3162 3162 3162 3163 3163 3163 3164 3164 3165 3164 3164 3164 3164 3165 3165 3165 3166 3166 3166 3167 3167 3167 3168 3168 3168 3168 3169 3169 3169 3169 3169 3169 3169 3169 3169 3169 3168 3168 3168 3168 3167 3168 3167 3167 3167 3166 3166 3165 3164 3165 3164 3163 3164 3164 3164 3164 3164 3164 3164 3164 3164 3164 3163 3163 3164
3139 3141 3142 3143 3144 3145 3147 3148 3149 3151 3152 3153 3154 3154 3155 3156 3156 3157 3158 3158 3159 3159 3160 3160 3160 3161 3161 3161 3161 3162 3162 3163 3163 3162 3163 3163 3163 3163 3164 3164 3164 3165 3165 3165 3166 3166 3167 3167 3167 3168 3167 3168 3167 3167 3167 3167 3168 3167 3167 3167 3167 3166 3166 3166 3166 3166 3165 3165 3165 3165 3163 3161 3162 3162 3162 3163 3162 3162 3163 3163 3162 3162 3162 3162 3162 3162 3162 3162
3137 3138 3139 3140 3142 3143 3144 3145 3147 3148 3150 3151 3152 3152 3153 3154 3155 3155 3156 3156 3157 3157 3158 3158 3159 3159 3159 3159 3159 3160 3160 3161 3161 3161 3161 3161 3161 3162 3162 3162 3163 3163 3163 3164 3164 3165 3165 3165 3166 3166 3166 3166 3166 3166 3166 3166 3166 3166 3165 3165 3165 3165 3164 3163 3164 3164 3164 3163 3163 3163 3161 3159 3159 3159 3160 3161 3161 3161 3161 3161 3161 3160 3160 3160 3160 3160 3159 3160
3134 3135 3136 3138 3139 3140 3142 3143 3144 3145 3147 3148 3149 3150 3151 3152 3152 3153 3154 3154 3155 3155 3156 3156 3157 3157 3157 3156 3157 3158 3158 3159 3159 3159 3159 3159 3160 3160 3160 3161 3161 3162 3162 3162 3163 3163 3163 3164 3164 3164 3164 3165 3164 3164 3164 3164 3164 3164 3163 3163 3163 3164 3163 3161 3162 3162 3162 3162 3161 3161 3160 3158 3157 3157 3158 3159 3159 3159 3159 3159 3159 3159 3158 3158 3158 3158 3157 3157
3131 3132 3134 3135 3136 3138 3139 3140 3142 3143 3144 3145 3147 3148 3149 3150 3150 3151 3152 3152 3153 3153 3154 3154 3154 3155 3154 3153 3155 3156 3156 3156 3157 3157 3157 3157 3158 3158 3159 3159 3159 3160 3160 3160 3161 3161 3161 3162 3162 3162 3162 3163 3163 3163 3163 3162 3162 3162 3162 3162 3161 3162 3161 3159 3159 3160 3160 3160 3160 3160 3159 3157 3155 3156 3157 3156 3156 3156 3156 3156 3156 3156 3156 3156 3156 3156 3156 3155
3128 3129 3131 3132 3134 3135 3136 3137 3139 3140 3141 3143 3144 3145 3146 3147 3148 3149 3149 3150 3150 3150 3151 3151 3152 3152 3151 3150 3152 3153 3154 3154 3155 3155 3155 3155 3156 3156 3157 3157 3157 3158 3158 3158 3159 3159 3159 3160 3160 3160 3160 3161 3161 3161 3162 3161 3160 3160 3160 3160 3160 3160 3160 3159 3157 3158 3159 3158 3158 3158 3157 3156 3154 3153 3154 3154 3154 3154 3153 3154 3154 3154 3154 3154 3154 3153 3153 3153
3125 3126 3128 3129 3131 3132 3133 3134 3136 3137 3138 3140 3141 3142 3143 3144 3145 3146 3146 3147 3147 3148 3148 3148 3149 3150 3148 3147 3149 3151 3152 3152 3152 3152 3153 3153 3154 3154 3155 3155 3156 3156 3156 3156 3157 3157 3157 3157 3158 3158 3158 3158 3158 3159 3160 3160 3160 3159 3158 3157 3158 3158 3158 3158 3156 3155 3156 3157 3156 3155 3154 3154 3152 3151 3152 3152 3151 3151 3151 3151 3151 3151 3151 3151 3151 3151 3151 3151
3122 3123 3125 3126 3128 3129 3130 3131 3133 3134 3135 3137 3137 3139 3140 3141 3142 3142 3143 3144 3144 3145 3145 3145 3147 3147 3144 3145 3147 3148 3149 3150 3149 3150 3150 3151 3151 3152 3152 3153 3153 3154 3154 3154 3154 3154 3155 3155 3155 3156 3155 3155 3156 3157 3157 3157 3158 3158 3157 3156 3156 3156 3155 3156 3155 3153 3154 3154 3154 3154 3151 3151 3150 3148 3149 3149 3149 3148 3148 3148 3148 3148 3148 3149 3149 3149 3148 3148
3118 3120 3121 3123 3124 3126 3127 3128 3130 3131 3132 3133 3134 3135 3137 3137 3138 3139 3140 3140 3141 3142 3142 3142 3144 3143 3141 3142 3144 3145 3146 3147 3146 3147 3148 3149 3149 3150 3150 3151 3151 3152 3151 3151 3151 3152 3152 3152 3152 3153 3152 3152 3153 3154 3155 3156 3156 3156 3155 3155 3154 3154 3154 3154 3153 3150 3152 3152 3151 3151 3149 3149 3149 3146 3145 3146 3145 3145 3144 3144 3145 3145 3145 3145 3145 3145 3145 3145
3114 3116 3118 3119 3121 3122 3123 3125 3126 3127 3129 3130 3131 3132 3133 3134 3135 3135 3136 3137 3138 3140 3140 3139 3140 3140 3139 3140 3142 3143 3143 3144 3144 3145 3146 3146 3147 3147 3148 3148 3149 3149 3149 3149 3149 3149 3150 3149 3148 3149 3150 3151 3151 3152 3153 3154 3153 3153 3153 3153 3152 3152 3152 3152 3150 3147 3150 3149 3148 3148 3147 3146 3146 3144 3141 3141 3142 3141 3141 3141 3141 3142 3142 3142 3142 3142 3142 3142
3110 3112 3114 3116 3118 3119 3120 3121 3122 3124 3125 3126 3127 3128 3129 3131 3133 3132 3132 3134 3135 3136 3136 3135 3136 3136 3135 3137 3139 3140 3140 3141 3141 3142 3143 3144 3145 3144 3145 3146 3146 3146 3146 3147 3146 3146 3148 3145 3145 3148 3149 3150 3150 3150 3151 3151 3150 3151 3151 3150 3150 3149 3149 3149 3147 3145 3147 3146 3144 3145 3143 3141 3142 3142 3138 3137 3138 3138 3137 3138 3138 3138 3138 3138 3139 3139 3139 3140
3107 3108 3110 3112 3113 3115 3116 3117 3118 3120 3121 3122 3123 3125 3127 3129 3130 3129 3130 3130 3129 3131 3132 3131 3132 3132 3132 3133 3135 3137 3137 3137 3138 3139 3141 3141 3142 3142 3142 3143 3144 3143 3144 3144 3144 3144 3143 3140 3143 3147 3146 3147 3148 3148 3148 3148 3148 3148 3148 3148 3148 3147 3147 3147 3144 3143 3144 3143 3141 3141 3140 3137 3138 3138 3134 3133 3134 3134 3133 3134 3134 3135 3135 3135 3136 3136 3137 3137
3102 3104 3106 3108 3109 3111 3112 3113 3114 3116 3117 3118 3120 3123 3125 3126 3127 3127 3128 3126 3124 3126 3127 3127 3128 3128 3128 3129 3131 3133 3133 3134 3135 3136 3138 3138 3139 3140 3139 3140 3141 3141 3140 3141 3142 3142 3139 3138 3141 3144 3143 3144 3145 3145 3145 3145 3145 3145 3145 3145 3145 3145 3146 3145 3143 3141 3140 3140 3139 3138 3136 3133 3134 3133 3130 3129 3130 3129 3130 3131 3131 3132 3132 3133 3133 3134 3135 3135
3098 3100 3102 3104 3106 3107 3108 3110 3110 3111 3114 3116 3118 3121 3122 3123 3124 3125 3125 3123 3119 3119 3121 3123 3123 3123 3124 3125 3128 3129 3129 3130 3131 3131 3134 3135 3135 3137 3136 3137 3139 3137 3136 3137 3139 3138 3137 3136 3138 3140 3141 3142 3142 3141 3142 3143 3142 3142 3142 3142 3143 3144 3144 3144 3142 3139 3138 3137 3136 3136 3133 3127 3128 3128 3125 3125 3126 3125 3126 3127 3127 3129 3130 3130 3131 3132 3132 3133
3094 3096 3098 3100 3102 3103 3105 3104 3104 3109 3111 3113 3116 3119 3120 3120 3122 3123 3123 3121 3114 3111 3115 3117 3118 3118 3119 3121 3123 3124 3125 3126 3126 3126 3130 3132 3132 3133 3133 3133 3134 3132 3132 3135 3136 3134 3134 3134 3134 3137 3138 3139 3139 3138 3140 3141 3140 3140 3139 3138 3140 3142 3142 3142 3140 3137 3137 3136 3133 3135 3132 3124 3123 3124 3122 3122 3123 3121 3122 3122 3124 3126 3127 3128 3129 3129 3130 3131
3090 3092 3094 3096 3097 3099 3100 3099 3102 3107 3107 3111 3115 3116 3117 3118 3120 3121 3121 3120 3109 3102 3106 3111 3113 3112 3112 3115 3117 3122 3122 3118 3120 3124 3126 3127 3128 3129 3129 3129 3129 3129 3130 3132 3132 3130 3129 3130 3131 3134 3135 3136 3136 3135 3136 3138 3138 3138 3136 3135 3137 3138 3139 3139 3138 3137 3136 3135 3131 3132 3132 3125 3121 3123 3121 3120 3121 3119 3119 3119 3121 3123 3124 3125 3126 3127 3128 3128
3085 3087 3090 3091 3093 3095 3095 3095 3101 3103 3103 3109 3112 3112 3114 3115 3118 3119 3120 3120 3104 3092 3098 3103 3105 3104 3105 3109 3113 3118 3115 3110 3115 3121 3121 3123 3125 3125 3125 3124 3124 3126 3128 3129 3128 3124 3124 3127 3129 3130 3132 3132 3132 3132 3133 3135 3136 3135 3133 3133 3135 3135 3136 3136 3136 3135 3134 3133 3130 3129 3131 3126 3119 3118 3118 3118 3119 3118 3117 3118 3118 3120 3121 3122 3123 3124 3125 3126
3080 3083 3085 3087 3089 3091 3092 3094 3097 3098 3101 3106 3107 3109 3111 3113 3116 3116 3120 3118 3097 3085 3090 3095 3097 3099 3101 3105 3108 3111 3108 3106 3112 3115 3116 3119 3120 3120 3121 3120 3121 3123 3124 3125 3124 3121 3121 3124 3126 3127 3129 3128 3128 3129 3130 3132 3133 3131 3130 3131 3132 3133 3133 3133 3134 3133 3132 3132 3127 3126 3129 3126 3116 3113 3115 3115 3115 3116 3116 3116 3117 3118 3120 3120 3121 3122 3123 3124
3075 3078 3080 3082 3084 3086 3088 3089 3091 3095 3099 3102 3104 3106 3107 3110 3113 3114 3119 3111 3088 3081 3086 3088 3091 3094 3096 3100 3102 3104 3104 3104 3108 3110 3113 3115 3115 3115 3116 3117 3119 3118 3119 3120 3120 3119 3119 3120 3122 3124 3125 3124 3125 3126 3128 3130 3129 3128 3128 3129 3130 3131 3131 3132 3132 3131 3132 3128 3122 3123 3126 3122 3113 3110 3112 3112 3111 3113 3114 3115 3116 3117 3118 3118 3119 3120 3120 3122
3070 3073 3075 3078 3079 3080 3082 3082 3086 3092 3096 3098 3100 3102 3104 3107 3108 3112 3114 3098 3081 3080 3082 3084 3088 3089 3092 3095 3097 3099 3100 3102 3104 3106 3109 3109 3110 3112 3112 3114 3116 3115 3115 3116 3116 3116 3115 3117 3119 3119 3120 3120 3122 3123 3125 3126 3126 3126 3127 3127 3129 3129 3129 3130 3129 3131 3131 3122 3117 3120 3122 3121 3114 3108 3109 3108 3108 3111 3112 3113 3115 3114 3115 3115 3116 3118 3118 3119
3064 3067 3070 3071 3073 3076 3076 3077 3083 3090 3092 3093 3096 3099 3101 3103 3105 3107 3099 3083 3079 3079 3077 3080 3083 3085 3089 3091 3093 3096 3097 3098 3100 3102 3103 3105 3106 3107 3107 3110 3111 3112 3113 3111 3111 3112 3112 3114 3114 3114 3116 3117 3119 3121 3122 3122 3123 3124 3125 3126 3128 3128 3128 3129 3128 3130 3127 3116 3112 3116 3117 3119 3113 3106 3106 3106 3106 3109 3109 3110 3112 3111 3112 3113 3114 3115 3116 3117
3058 3061 3064 3066 3068 3071 3071 3074 3082 3087 3087 3089 3092 3094 3096 3098 3099 3093 3081 3077 3080 3075 3071 3076 3079 3082 3087 3089 3090 3092 3093 3094 3096 3097 3099 3101 3102 3101 3102 3104 3105 3109 3109 3107 3108 3108 3107 3108 3109 3110 3112 3113 3116 3117 3117 3118 3120 3121 3122 3124 3126 3126 3126 3126 3124 3123 3119 3112 3110 3112 3114 3114 3107 3102 3105 3104 3104 3106 3106 3107 3108 3108 3109 3110 3112 3113 3114 3115
3052 3055 3057 3059 3062 3064 3065 3070 3078 3082 3081 3084 3087 3087 3091 3092 3084 3074 3071 3074 3075 3070 3069 3074 3077 3081 3085 3085 3086 3088 3090 3091 3092 3094 3095 3097 3098 3098 3099 3101 3102 3104 3105 3104 3105 3106 3105 3104 3105 3106 3107 3108 3110 3111 3112 3113 3114 3116 3117 3120 3122 3122 3123 3121 3118 3115 3112 3109 3108 3110 3112 3108 3101 3099 3101 3101 3102 3103 3104 3105 3106 3106 3107 3108 3109 3110 3111 3112
3047 3048 3050 3052 3056 3058 3060 3065 3072 3075 3076 3079 3081 3081 3085 3080 3066 3061 3067 3070 3069 3069 3069 3072 3074 3078 3080 3081 3082 3084 3087 3087 3088 3090 3091 3092 3093 3092 3094 3096 3097 3100 3102 3103 3103 3103 3103 3100 3099 3101 3101 3103 3104 3105 3107 3108 3110 3111 3113 3116 3116 3115 3116 3114 3111 3109 3107 3106 3107 3109 3109 3102 3097 3096 3096 3097 3099 3100 3102 3103 3104 3104 3105 3106 3107 3108 3109 3110
3042 3042 3044 3047 3049 3051 3054 3059 3064 3068 3069 3071 3072 3072 3071 3063 3053 3054 3060 3063 3066 3067 3068 3070 3073 3075 3076 3077 3078 3080 3083 3082 3083 3087 3087 3087 3088 3087 3089 3091 3093 3096 3098 3100 3099 3099 3099 3096 3095 3097 3098 3099 3101 3102 3105 3106 3107 3108 3111 3113 3112 3111 3112 3109 3106 3105 3106 3105 3104 3104 3101 3095 3093 3093 3093 3095 3096 3097 3100 3100 3102 3103 3103 3104 3105 3106 3107 3108
3036 3036 3039 3039 3041 3045 3048 3052 3056 3059 3059 3061 3062 3059 3054 3047 3045 3049 3054 3058 3061 3062 3065 3069 3070 3072 3073 3072 3073 3076 3078 3079 3080 3082 3083 3084 3083 3084 3085 3086 3089 3092 3093 3095 3095 3095 3096 3093 3092 3094 3095 3096 3098 3099 3101 3102 3103 3104 3106 3106 3105 3107 3109 3108 3106 3105 3106 3105 3097 3094 3093 3091 3092 3091 3091 3093 3094 3095 3097 3097 3099 3101 3101 3102 3103 3104 3105 3106
3028 3030 3031 3031 3034 3038 3042 3046 3050 3051 3052 3051 3047 3043 3040 3039 3042 3047 3051 3055 3055 3057 3062 3065 3065 3067 3067 3067 3068 3071 3074 3076 3077 3078 3079 3080 3079 3078 3080 3083 3086 3088 3088 3092 3092 3091 3093 3091 3089 3091 3092 3092 3095 3096 3096 3097 3098 3100 3100 3100 3103 3107 3107 3107 3107 3104 3105 3102 3091 3087 3088 3088 3089 3086 3085 3089 3091 3092 3094 3095 3097 3098 3099 3100 3101 3102 3103 3104
3022 3024 3024 3024 3028 3033 3037 3041 3044 3044 3045 3043 3038 3035 3034 3035 3039 3045 3048 3050 3051 3055 3059 3060 3060 3061 3062 3063 3065 3067 3071 3072 3072 3074 3075 3076 3075 3073 3076 3080 3082 3084 3087 3090 3090 3089 3090 3089 3087 3087 3089 3090 3092 3093 3093 3093 3095 3096 3096 3097 3100 3103 3103 3104 3105 3102 3101 3098 3088 3083 3083 3082 3082 3080 3081 3085 3088 3089 3091 3092 3094 3095 3096 3098 3099 3100 3101 3102
3018 3018 3015 3017 3023 3028 3032 3037 3038 3037 3035 3034 3033 3030 3027 3028 3034 3040 3043 3045 3048 3052 3053 3054 3056 3058 3058 3061 3061 3063 3067 3067 3067 3070 3071 3071 3070 3069 3072 3077 3079 3081 3084 3086 3086 3085 3086 3087 3084 3083 3085 3088 3088 3087 3087 3087 3090 3092 3093 3095 3097 3098 3098 3099 3098 3096 3095 3092 3086 3082 3078 3074 3074 3076 3078 3080 3083 3086 3088 3089 3091 3092 3094 3096 3097 3098 3098 3099
3014 3012 3008 3011 3019 3023 3028 3032 3032 3028 3025 3026 3028 3023 3020 3025 3030 3033 3038 3042 3045 3047 3048 3050 3053 3054 3053 3057 3058 3058 3063 3064 3063 3066 3067 3066 3066 3065 3068 3073 3076 3078 3081 3082 3082 3082 3083 3084 3082 3080 3082 3083 3081 3080 3080 3082 3084 3085 3087 3089 3090 3092 3094 3095 3093 3092 3092 3089 3084 3081 3074 3069 3069 3072 3075 3077 3080 3083 3084 3086 3088 3090 3092 3093 3094 3095 3096 3097
3009 3007 3002 3007 3014 3018 3022 3024 3021 3019 3019 3022 3023 3020 3018 3022 3026 3028 3034 3039 3041 3042 3045 3046 3049 3050 3049 3052 3054 3054 3058 3061 3060 3061 3062 3061 3062 3062 3063 3068 3072 3074 3076 3077 3076 3077 3078 3078 3078 3077 3076 3076 3076 3076 3078 3080 3079 3080 3081 3081 3082 3085 3089 3090 3088 3086 3087 3085 3082 3080 3073 3066 3068 3071 3072 3075 3077 3080 3082 3084 3086 3088 3090 3091 3092 3093 3094 3094
3002 3000 2998 3002 3008 3012 3014 3013 3010 3012 3013 3012 3013 3014 3015 3018 3022 3025 3029 3034 3037 3038 3040 3042 3044 3046 3046 3047 3048 3049 3053 3056 3056 3056 3057 3057 3058 3059 3061 3064 3068 3069 3071 3071 3071 3072 3073 3073 3074 3073 3072 3072 3073 3073 3076 3077 3076 3078 3078 3078 3081 3082 3083 3084 3082 3080 3082 3082 3080 3082 3075 3065 3066 3070 3071 3073 3075 3077 3080 3082 3084 3086 3087 3088 3090 3090 3090 3091
2995 2995 2996 2998 3001 3005 3007 3004 3004 3006 3005 3005 3008 3012 3014 3016 3018 3020 3023 3028 3030 3032 3034 3035 3037 3040 3041 3042 3044 3045 3047 3051 3051 3051 3052 3053 3055 3056 3058 3060 3062 3064 3066 3066 3065 3068 3069 3068 3069 3071 3070 3070 3071 3071 3073 3075 3075 3074 3073 3074 3076 3076 3077 3079 3078 3078 3079 3077 3078 3081 3073 3063 3064 3068 3070 3072 3074 3075 3077 3079 3081 3083 3084 3085 3086 3087 3088 3088
2989 2991 2992 2993 2994 2997 2997 2995 2997 2999 2999 3002 3006 3009 3011 3012 3013 3015 3017 3020 3023 3026 3028 3028 3030 3034 3037 3039 3040 3041 3043 3045 3045 3045 3047 3049 3050 3051 3054 3056 3057 3059 3060 3059 3060 3062 3063 3062 3065 3069 3069 3068 3068 3069 3069 3069 3068 3067 3067 3069 3070 3071 3075 3075 3075 3077 3075 3070 3074 3076 3066 3061 3063 3065 3067 3070 3071 3073 3075 3076 3078 3080 3081 3082 3082 3083 3084 3085
2985 2986 2987 2988 2988 2988 2987 2988 2991 2992 2994 2998 3001 3003 3006 3007 3006 3008 3012 3014 3018 3021 3023 3023 3026 3030 3032 3035 3036 3037 3038 3039 3040 3040 3042 3043 3044 3047 3050 3051 3052 3053 3053 3055 3057 3058 3057 3056 3058 3060 3060 3059 3058 3057 3055 3054 3057 3059 3060 3062 3064 3066 3069 3069 3072 3075 3068 3065 3069 3066 3060 3061 3064 3063 3064 3067 3068 3071 3073 3074 3075 3077 3078 3078 3079 3079 3080 3081
2981 2981 2981 2982 2982 2981 2981 2984 2988 2989 2990 2994 2995 2997 2999 3000 3001 3004 3008 3011 3014 3016 3018 3019 3022 3025 3027 3029 3030 3030 3030 3033 3035 3035 3036 3038 3040 3042 3045 3046 3047 3048 3049 3051 3053 3054 3054 3052 3051 3049 3049 3048 3047 3047 3046 3047 3050 3052 3053 3055 3057 3059 3062 3066 3068 3066 3062 3064 3062 3055 3057 3063 3062 3061 3063 3064 3066 3068 3070 3072 3073 3074 3074 3074 3075 3076 3076 3077
2976 2975 2976 2978 2978 2977 2976 2979 2982 2983 2986 2988 2989 2990 2992 2994 2998 3001 3003 3005 3008 3010 3013 3014 3016 3018 3019 3021 3022 3023 3024 3027 3029 3029 3030 3033 3034 3036 3038 3040 3041 3043 3044 3046 3047 3048 3048 3046 3043 3043 3044 3045 3045 3045 3045 3045 3046 3047 3049 3050 3051 3054 3057 3060 3058 3054 3058 3061 3051 3047 3057 3060 3057 3059 3061 3061 3064 3066 3067 3069 3070 3070 3071 3070 3071 3072 3072 3074
2970 2969 2971 2974 2974 2973 2973 2975 2976 2978 2981 2984 2985 2986 2988 2990 2993 2996 2997 2999 3002 3005 3007 3008 3008 3009 3010 3013 3016 3017 3019 3021 3022 3023 3025 3026 3028 3030 3032 3035 3036 3037 3038 3040 3041 3042 3041 3038 3038 3040 3040 3041 3043 3043 3042 3043 3043 3044 3046 3046 3047 3049 3050 3049 3048 3048 3055 3053 3044 3047 3056 3054 3053 3057 3058 3059 3062 3063 3064 3066 3066 3066 3067 3067 3068 3068 3069 3070
2964 2964 2966 2969 2969 2970 2972 2973 2974 2975 2977 2980 2981 2982 2983 2984 2986 2989 2992 2995 2996 2998 3001 3001 3000 3002 3005 3009 3011 3011 3012 3013 3014 3015 3018 3020 3022 3025 3027 3028 3030 3031 3033 3034 3034 3035 3036 3033 3034 3037 3036 3037 3040 3039 3038 3040 3040 3040 3042 3042 3042 3042 3043 3043 3044 3047 3050 3047 3043 3049 3052 3049 3051 3055 3055 3057 3059 3059 3061 3062 3061 3062 3063 3063 3064 3065 3065 3066
2958 2959 2962 2964 2964 2966 2968 2969 2971 2972 2973 2975 2976 2976 2979 2980 2981 2985 2988 2989 2988 2990 2993 2993 2993 2998 3002 3004 3004 3004 3005 3007 3008 3010 3013 3015 3017 3019 3020 3022 3024 3025 3027 3028 3029 3030 3031 3030 3030 3033 3033 3033 3033 3033 3035 3036 3035 3036 3038 3037 3037 3036 3038 3040 3041 3044 3046 3043 3043 3048 3048 3045 3047 3050 3052 3054 3054 3055 3057 3057 3058 3059 3059 3059 3060 3060 3061 3062
2955 2956 2958 2960 2960 2962 2964 2965 2967 2968 2968 2970 2971 2972 2974 2975 2977 2981 2982 2982 2983 2985 2987 2987 2990 2995 2998 2999 2999 2999 3002 3005 3006 3007 3009 3010 3012 3014 3016 3017 3019 3021 3021 3022 3023 3024 3026 3025 3026 3028 3029 3027 3028 3030 3030 3031 3033 3034 3030 3026 3029 3031 3032 3035 3036 3038 3039 3038 3040 3043 3040 3038 3042 3045 3048 3050 3050 3052 3053 3053 3054 3055 3055 3055 3056 3056 3057 3057
2952 2952 2954 2956 2956 2957 2959 2961 2964 2964 2963 2965 2967 2969 2970 2971 2974 2977 2977 2977 2979 2981 2982 2984 2987 2991 2992 2992 2993 2995 2999 3001 3001 3003 3005 3006 3007 3010 3011 3012 3014 3015 3016 3018 3018 3018 3020 3020 3021 3023 3023 3022 3023 3025 3026 3030 3032 3026 3014 3012 3022 3027 3028 3031 3031 3032 3034 3035 3036 3035 3032 3035 3040 3042 3043 3045 3046 3047 3048 3049 3050 3050 3050 3051 3051 3051 3052 3051